HORYU 2

Last updated on Fri Feb 16 2018 09:49:18 GMT+0000 (Coordinated Universal Time)

1 38340U 12025D 18047.02835975 .00000219 00000-0 40277-4 0 9993 2 38340 98.3740 64.5411 0010601 232.7615 127.2627 14.75499039309242
UTC large
Height (km)
Speed (km/s)
/
Latitude / Longitude
Inclination (degrees)
Orbital Period (minutes)
Azimuth
Elevation
Range (km)
Doppler Factor

Next 0 passes for location: London (51.5072 / 0.1276)

Sorry there are no passes over London.